Year,Month,Day,Hour,Minute,Value (Times are PST for temperature in C)
2015,07,19,00,00,21.80
2015,07,19,00,01,21.80
2015,07,19,00,02,21.80
2015,07,19,00,03,21.80
2015,07,19,00,04,21.80
2015,07,19,00,05,21.80
2015,07,19,00,06,21.80
2015,07,19,00,07,21.80
2015,07,19,00,08,21.80
2015,07,19,00,09,21.80
2015,07,19,00,10,21.80
2015,07,19,00,11,21.80
2015,07,19,00,12,21.80
2015,07,19,00,13,21.80
2015,07,19,00,14,21.80
2015,07,19,00,15,21.80
2015,07,19,00,16,21.80
2015,07,19,00,17,21.90
2015,07,19,00,18,21.90
2015,07,19,00,19,21.90
2015,07,19,00,20,21.90
2015,07,19,00,21,21.90
2015,07,19,00,22,21.90
2015,07,19,00,23,21.90
2015,07,19,00,24,21.90
2015,07,19,00,25,21.90
2015,07,19,00,26,21.90
2015,07,19,00,27,21.90
2015,07,19,00,28,21.90
2015,07,19,00,29,21.90
2015,07,19,00,30,21.90
2015,07,19,00,31,21.90
2015,07,19,00,32,21.90
2015,07,19,00,33,21.90
2015,07,19,00,34,21.90
2015,07,19,00,35,21.80
2015,07,19,00,36,21.80
2015,07,19,00,37,21.80
2015,07,19,00,38,21.80
2015,07,19,00,39,21.80
2015,07,19,00,40,21.70
2015,07,19,00,41,21.60
2015,07,19,00,42,21.50
2015,07,19,00,43,21.50
2015,07,19,00,44,21.40
2015,07,19,00,45,21.30
2015,07,19,00,46,21.30
2015,07,19,00,47,21.20
2015,07,19,00,48,21.20
2015,07,19,00,49,21.20
2015,07,19,00,50,21.10
2015,07,19,00,51,21.10
2015,07,19,00,52,21.00
2015,07,19,00,53,21.00
2015,07,19,00,54,21.00
2015,07,19,00,55,20.90
2015,07,19,00,56,20.90
2015,07,19,00,57,20.80
2015,07,19,00,58,20.80
2015,07,19,00,59,20.70
2015,07,19,01,00,20.70
2015,07,19,01,01,20.60
2015,07,19,01,02,20.60
2015,07,19,01,03,20.50
2015,07,19,01,04,20.50
2015,07,19,01,05,20.40
2015,07,19,01,06,20.40
2015,07,19,01,07,20.40
2015,07,19,01,08,20.40
2015,07,19,01,09,20.40
2015,07,19,01,10,20.40
2015,07,19,01,11,20.40
2015,07,19,01,12,20.40
2015,07,19,01,13,20.50
2015,07,19,01,14,20.50
2015,07,19,01,15,20.60
2015,07,19,01,16,20.60
2015,07,19,01,17,20.70
2015,07,19,01,18,20.70
2015,07,19,01,19,20.80
2015,07,19,01,20,20.80
2015,07,19,01,21,20.90
2015,07,19,01,22,20.90
2015,07,19,01,23,20.90
2015,07,19,01,24,21.00
2015,07,19,01,25,21.00
2015,07,19,01,26,21.10
2015,07,19,01,27,21.10
2015,07,19,01,28,21.10
2015,07,19,01,29,21.10
2015,07,19,01,30,21.10
2015,07,19,01,31,21.10
2015,07,19,01,32,21.10
2015,07,19,01,33,21.10
2015,07,19,01,34,21.10
2015,07,19,01,35,21.00
2015,07,19,01,36,21.00
2015,07,19,01,37,20.90
2015,07,19,01,38,20.90
2015,07,19,01,39,20.80
2015,07,19,01,40,20.80
2015,07,19,01,41,20.80
2015,07,19,01,42,20.80
2015,07,19,01,43,20.70
2015,07,19,01,44,20.70
2015,07,19,01,45,20.70
2015,07,19,01,46,20.70
2015,07,19,01,47,20.60
2015,07,19,01,48,20.60
2015,07,19,01,49,20.60
2015,07,19,01,50,20.60
2015,07,19,01,51,20.50
2015,07,19,01,52,20.50
2015,07,19,01,53,20.50
2015,07,19,01,54,20.40
2015,07,19,01,55,20.40
2015,07,19,01,56,20.40
2015,07,19,01,57,20.40
2015,07,19,01,58,20.30
2015,07,19,01,59,20.30
2015,07,19,02,00,20.30
2015,07,19,02,01,20.30
2015,07,19,02,02,20.30
2015,07,19,02,03,20.20
2015,07,19,02,04,20.20
2015,07,19,02,05,20.20
2015,07,19,02,06,20.20
2015,07,19,02,07,20.20
2015,07,19,02,08,20.20
2015,07,19,02,09,20.30
2015,07,19,02,10,20.20
2015,07,19,02,11,20.30
2015,07,19,02,12,20.20
2015,07,19,02,13,20.20
2015,07,19,02,14,20.20
2015,07,19,02,15,20.20
2015,07,19,02,16,20.20
2015,07,19,02,17,20.20
2015,07,19,02,18,20.10
2015,07,19,02,19,20.10
2015,07,19,02,20,20.10
2015,07,19,02,21,20.00
2015,07,19,02,22,20.00
2015,07,19,02,23,20.00
2015,07,19,02,24,19.90
2015,07,19,02,25,19.90
2015,07,19,02,26,19.80
2015,07,19,02,27,19.80
2015,07,19,02,28,19.80
2015,07,19,02,29,19.80
2015,07,19,02,30,19.80
2015,07,19,02,31,19.70
2015,07,19,02,32,19.70
2015,07,19,02,33,19.70
2015,07,19,02,34,19.70
2015,07,19,02,35,19.70
2015,07,19,02,36,19.70
2015,07,19,02,37,19.80
2015,07,19,02,38,19.80
2015,07,19,02,39,19.80
2015,07,19,02,40,19.80
2015,07,19,02,41,19.80
2015,07,19,02,42,19.80
2015,07,19,02,43,19.80
2015,07,19,02,44,19.80
2015,07,19,02,45,19.70
2015,07,19,02,46,19.70
2015,07,19,02,47,19.70
2015,07,19,02,48,19.70
2015,07,19,02,49,19.70
2015,07,19,02,50,19.70
2015,07,19,02,51,19.70
2015,07,19,02,52,19.60
2015,07,19,02,53,19.60
2015,07,19,02,54,19.60
2015,07,19,02,55,19.60
2015,07,19,02,56,19.60
2015,07,19,02,57,19.50
2015,07,19,02,58,19.50
2015,07,19,02,59,19.50
2015,07,19,03,00,19.50
2015,07,19,03,01,19.50
2015,07,19,03,02,19.40
2015,07,19,03,03,19.40
2015,07,19,03,04,19.30
2015,07,19,03,05,19.30
2015,07,19,03,06,19.20
2015,07,19,03,07,19.10
2015,07,19,03,08,19.10
2015,07,19,03,09,19.00
2015,07,19,03,10,19.00
2015,07,19,03,11,18.90
2015,07,19,03,12,18.90
2015,07,19,03,13,18.80
2015,07,19,03,14,18.80
2015,07,19,03,15,18.80
2015,07,19,03,16,18.80
2015,07,19,03,17,18.80
2015,07,19,03,18,18.70
2015,07,19,03,19,18.70
2015,07,19,03,20,18.70
2015,07,19,03,21,18.70
2015,07,19,03,22,18.60
2015,07,19,03,23,18.60
2015,07,19,03,24,18.60
2015,07,19,03,25,18.50
2015,07,19,03,26,18.40
2015,07,19,03,27,18.40
2015,07,19,03,28,18.40
2015,07,19,03,29,18.30
2015,07,19,03,30,18.30
2015,07,19,03,31,18.20
2015,07,19,03,32,18.20
2015,07,19,03,33,18.20
2015,07,19,03,34,18.10
2015,07,19,03,35,18.10
2015,07,19,03,36,18.00
2015,07,19,03,37,18.00
2015,07,19,03,38,17.90
2015,07,19,03,39,17.90
2015,07,19,03,40,17.80
2015,07,19,03,41,17.80
2015,07,19,03,42,17.80
2015,07,19,03,43,17.70
2015,07,19,03,44,17.70
2015,07,19,03,45,17.70
2015,07,19,03,46,17.60
2015,07,19,03,47,17.60
2015,07,19,03,48,17.60
2015,07,19,03,49,17.60
2015,07,19,03,50,17.60
2015,07,19,03,51,17.50
2015,07,19,03,52,17.50
2015,07,19,03,53,17.50
2015,07,19,03,54,17.50
2015,07,19,03,55,17.50
2015,07,19,03,56,17.50
2015,07,19,03,57,17.50
2015,07,19,03,58,17.50
2015,07,19,03,59,17.50
2015,07,19,04,00,17.60
2015,07,19,04,01,17.60
2015,07,19,04,02,17.60
2015,07,19,04,03,17.70
2015,07,19,04,04,17.70
2015,07,19,04,05,17.70
2015,07,19,04,06,17.70
2015,07,19,04,07,17.70
2015,07,19,04,08,17.70
2015,07,19,04,09,17.70
2015,07,19,04,10,17.70
2015,07,19,04,11,17.70
2015,07,19,04,12,17.60
2015,07,19,04,13,17.60
2015,07,19,04,14,17.60
2015,07,19,04,15,17.60
2015,07,19,04,16,17.60
2015,07,19,04,17,17.50
2015,07,19,04,18,17.50
2015,07,19,04,19,17.50
2015,07,19,04,20,17.40
2015,07,19,04,21,17.40
2015,07,19,04,22,17.40
2015,07,19,04,23,17.40
2015,07,19,04,24,17.40
2015,07,19,04,25,17.30
2015,07,19,04,26,17.30
2015,07,19,04,27,17.30
2015,07,19,04,28,17.30
2015,07,19,04,29,17.20
2015,07,19,04,30,17.20
2015,07,19,04,31,17.20
2015,07,19,04,32,17.20
2015,07,19,04,33,17.10
2015,07,19,04,34,17.10
2015,07,19,04,35,17.10
2015,07,19,04,36,17.10
2015,07,19,04,37,17.10
2015,07,19,04,38,17.00
2015,07,19,04,39,17.00
2015,07,19,04,40,17.00
2015,07,19,04,41,16.90
2015,07,19,04,42,16.90
2015,07,19,04,43,16.90
2015,07,19,04,44,16.90
2015,07,19,04,45,16.90
2015,07,19,04,46,16.90
2015,07,19,04,47,16.80
2015,07,19,04,48,16.80
2015,07,19,04,49,16.80
2015,07,19,04,50,16.80
2015,07,19,04,51,16.80
2015,07,19,04,52,16.80
2015,07,19,04,53,16.80
2015,07,19,04,54,16.70
2015,07,19,04,55,16.70
2015,07,19,04,56,16.70
2015,07,19,04,57,16.70
2015,07,19,04,58,16.60
2015,07,19,04,59,16.60
2015,07,19,05,00,16.60
2015,07,19,05,01,16.60
2015,07,19,05,02,16.50
2015,07,19,05,03,16.50
2015,07,19,05,04,16.50
2015,07,19,05,05,16.40
2015,07,19,05,06,16.40
2015,07,19,05,07,16.40
2015,07,19,05,08,16.40
2015,07,19,05,09,16.40
2015,07,19,05,10,16.40
2015,07,19,05,11,16.40
2015,07,19,05,12,16.40
2015,07,19,05,13,16.40
2015,07,19,05,14,16.40
2015,07,19,05,15,16.40
2015,07,19,05,16,16.40
2015,07,19,05,17,16.40
2015,07,19,05,18,16.40
2015,07,19,05,19,16.40
2015,07,19,05,20,16.40
2015,07,19,05,21,16.40
2015,07,19,05,22,16.40
2015,07,19,05,23,16.40
2015,07,19,05,24,16.40
2015,07,19,05,25,16.40
2015,07,19,05,26,16.40
2015,07,19,05,27,16.40
2015,07,19,05,28,16.50
2015,07,19,05,29,16.50
2015,07,19,05,30,16.50
2015,07,19,05,31,16.50
2015,07,19,05,32,16.40
2015,07,19,05,33,16.40
2015,07,19,05,34,16.40
2015,07,19,05,35,16.40
2015,07,19,05,36,16.30
2015,07,19,05,37,16.30
2015,07,19,05,38,16.30
2015,07,19,05,39,16.30
2015,07,19,05,40,16.30
2015,07,19,05,41,16.20
2015,07,19,05,42,16.20
2015,07,19,05,43,16.20
2015,07,19,05,44,16.20
2015,07,19,05,45,16.20
2015,07,19,05,46,16.20
2015,07,19,05,47,16.20
2015,07,19,05,48,16.20
2015,07,19,05,49,16.20
2015,07,19,05,50,16.20
2015,07,19,05,51,16.20
2015,07,19,05,52,16.20
2015,07,19,05,53,16.20
2015,07,19,05,54,16.20
2015,07,19,05,55,16.20
2015,07,19,05,56,16.20
2015,07,19,05,57,16.20
2015,07,19,05,58,16.30
2015,07,19,05,59,16.30
2015,07,19,06,00,16.30
2015,07,19,06,01,16.30
2015,07,19,06,02,16.30
2015,07,19,06,03,16.30
2015,07,19,06,04,16.30
2015,07,19,06,05,16.30
2015,07,19,06,06,16.30
2015,07,19,06,07,16.40
2015,07,19,06,08,16.40
2015,07,19,06,09,16.40
2015,07,19,06,10,16.40
2015,07,19,06,11,16.40
2015,07,19,06,12,16.40
2015,07,19,06,13,16.50
2015,07,19,06,14,16.50
2015,07,19,06,15,16.50
2015,07,19,06,16,16.50
2015,07,19,06,17,16.50
2015,07,19,06,18,16.60
2015,07,19,06,19,16.60
2015,07,19,06,20,16.60
2015,07,19,06,21,16.60
2015,07,19,06,22,16.60
2015,07,19,06,23,16.70
2015,07,19,06,24,16.70
2015,07,19,06,25,16.70
2015,07,19,06,26,16.70
2015,07,19,06,27,16.70
2015,07,19,06,28,16.80
2015,07,19,06,29,16.80
2015,07,19,06,30,16.80
2015,07,19,06,31,16.80
2015,07,19,06,32,16.80
2015,07,19,06,33,16.80
2015,07,19,06,34,16.80
2015,07,19,06,35,16.90
2015,07,19,06,36,16.90
2015,07,19,06,37,16.90
2015,07,19,06,38,16.90
2015,07,19,06,39,17.00
2015,07,19,06,40,17.00
2015,07,19,06,41,17.00
2015,07,19,06,42,17.10
2015,07,19,06,43,17.10
2015,07,19,06,44,17.20
2015,07,19,06,45,17.20
2015,07,19,06,46,17.30
2015,07,19,06,47,17.40
2015,07,19,06,48,17.50
2015,07,19,06,49,17.60
2015,07,19,06,50,17.60
2015,07,19,06,51,17.70
2015,07,19,06,52,17.80
2015,07,19,06,53,17.80
2015,07,19,06,54,17.90
2015,07,19,06,55,17.90
2015,07,19,06,56,17.90
2015,07,19,06,57,18.00
2015,07,19,06,58,18.00
2015,07,19,06,59,18.00
2015,07,19,07,00,18.10
2015,07,19,07,01,18.10
2015,07,19,07,02,18.10
2015,07,19,07,03,18.10
2015,07,19,07,04,18.10
2015,07,19,07,05,18.20
2015,07,19,07,06,18.20
2015,07,19,07,07,18.20
2015,07,19,07,08,18.30
2015,07,19,07,09,18.30
2015,07,19,07,10,18.40
2015,07,19,07,11,18.40
2015,07,19,07,12,18.50
2015,07,19,07,13,18.60
2015,07,19,07,14,18.60
2015,07,19,07,15,18.70
2015,07,19,07,16,18.70
2015,07,19,07,17,18.80
2015,07,19,07,18,18.80
2015,07,19,07,19,18.80
2015,07,19,07,20,18.90
2015,07,19,07,21,18.90
2015,07,19,07,22,19.00
2015,07,19,07,23,19.10
2015,07,19,07,24,19.10
2015,07,19,07,25,19.20
2015,07,19,07,26,19.30
2015,07,19,07,27,19.30
2015,07,19,07,28,19.40
2015,07,19,07,29,19.40
2015,07,19,07,30,19.50
2015,07,19,07,31,19.60
2015,07,19,07,32,19.60
2015,07,19,07,33,19.70
2015,07,19,07,34,19.70
2015,07,19,07,35,19.80
2015,07,19,07,36,19.80
2015,07,19,07,37,19.80
2015,07,19,07,38,19.90
2015,07,19,07,39,19.90
2015,07,19,07,40,19.90
2015,07,19,07,41,19.90
2015,07,19,07,42,19.90
2015,07,19,07,43,20.00
2015,07,19,07,44,20.00
2015,07,19,07,45,20.00
2015,07,19,07,46,20.00
2015,07,19,07,47,20.00
2015,07,19,07,48,20.10
2015,07,19,07,49,20.10
2015,07,19,07,50,20.10
2015,07,19,07,51,20.20
2015,07,19,07,52,20.20
2015,07,19,07,53,20.20
2015,07,19,07,54,20.20
2015,07,19,07,55,20.30
2015,07,19,07,56,20.30
2015,07,19,07,57,20.30
2015,07,19,07,58,20.30
2015,07,19,07,59,20.30
2015,07,19,08,00,20.30
2015,07,19,08,01,20.30
2015,07,19,08,02,20.30
2015,07,19,08,03,20.30
2015,07,19,08,04,20.40
2015,07,19,08,05,20.40
2015,07,19,08,06,20.40
2015,07,19,08,07,20.50
2015,07,19,08,08,20.60
2015,07,19,08,09,20.60
2015,07,19,08,10,20.60
2015,07,19,08,11,20.60
2015,07,19,08,12,20.70
2015,07,19,08,13,20.70
2015,07,19,08,14,20.70
2015,07,19,08,15,20.70
2015,07,19,08,16,20.70
2015,07,19,08,17,20.70
2015,07,19,08,18,20.80
2015,07,19,08,19,20.80
2015,07,19,08,20,20.80
2015,07,19,08,21,20.90
2015,07,19,08,22,20.90
2015,07,19,08,23,21.00
2015,07,19,08,24,21.10
2015,07,19,08,25,21.10
2015,07,19,08,26,21.10
2015,07,19,08,27,21.20
2015,07,19,08,28,21.20
2015,07,19,08,29,21.20
2015,07,19,08,30,21.30
2015,07,19,08,31,21.30
2015,07,19,08,32,21.40
2015,07,19,08,33,21.40
2015,07,19,08,34,21.40
2015,07,19,08,35,21.40
2015,07,19,08,36,21.40
2015,07,19,08,37,21.40
2015,07,19,08,38,21.40
2015,07,19,08,39,21.40
2015,07,19,08,40,21.40
2015,07,19,08,41,21.40
2015,07,19,08,42,21.40
2015,07,19,08,43,21.40
2015,07,19,08,44,21.50
2015,07,19,08,45,21.50
2015,07,19,08,46,21.50
2015,07,19,08,47,21.60
2015,07,19,08,48,21.60
2015,07,19,08,49,21.60
2015,07,19,08,50,21.60
2015,07,19,08,51,21.60
2015,07,19,08,52,21.60
2015,07,19,08,53,21.60
2015,07,19,08,54,21.60
2015,07,19,08,55,21.70
2015,07,19,08,56,21.70
2015,07,19,08,57,21.70
2015,07,19,08,58,21.70
2015,07,19,08,59,21.80
2015,07,19,09,00,21.80
2015,07,19,09,01,21.90
2015,07,19,09,02,21.90
2015,07,19,09,03,22.00
2015,07,19,09,04,22.00
2015,07,19,09,05,22.00
2015,07,19,09,06,22.10
2015,07,19,09,07,22.10
2015,07,19,09,08,22.20
2015,07,19,09,09,22.20
2015,07,19,09,10,22.20
2015,07,19,09,11,22.30
2015,07,19,09,12,22.40
2015,07,19,09,13,22.40
2015,07,19,09,14,22.50
2015,07,19,09,15,22.60
2015,07,19,09,16,22.70
2015,07,19,09,17,22.80
2015,07,19,09,18,22.80
2015,07,19,09,19,22.90
2015,07,19,09,20,22.90
2015,07,19,09,21,22.90
2015,07,19,09,22,23.00
2015,07,19,09,23,23.00
2015,07,19,09,24,23.00
2015,07,19,09,25,23.10
2015,07,19,09,26,23.10
2015,07,19,09,27,23.10
2015,07,19,09,28,23.20
2015,07,19,09,29,23.20
2015,07,19,09,30,23.20
2015,07,19,09,31,23.30
2015,07,19,09,32,23.30
2015,07,19,09,33,23.20
2015,07,19,09,34,23.20
2015,07,19,09,35,23.20
2015,07,19,09,36,23.20
2015,07,19,09,37,23.20
2015,07,19,09,38,23.30
2015,07,19,09,39,23.30
2015,07,19,09,40,23.30
2015,07,19,09,41,23.30
2015,07,19,09,42,23.30
2015,07,19,09,43,23.40
2015,07,19,09,44,23.40
2015,07,19,09,45,23.40
2015,07,19,09,46,23.40
2015,07,19,09,47,23.40
2015,07,19,09,48,23.40
2015,07,19,09,49,23.40
2015,07,19,09,50,23.40
2015,07,19,09,51,23.40
2015,07,19,09,52,23.40
2015,07,19,09,53,23.50
2015,07,19,09,54,23.50
2015,07,19,09,55,23.50
2015,07,19,09,56,23.50
2015,07,19,09,57,23.50
2015,07,19,09,58,23.50
2015,07,19,09,59,23.60
2015,07,19,10,00,23.60
2015,07,19,10,01,23.70
2015,07,19,10,02,23.70
2015,07,19,10,03,23.70
2015,07,19,10,04,23.80
2015,07,19,10,05,23.80
2015,07,19,10,06,23.80
2015,07,19,10,07,23.80
2015,07,19,10,08,23.80
2015,07,19,10,09,23.80
2015,07,19,10,10,23.80
2015,07,19,10,11,23.90
2015,07,19,10,12,23.90
2015,07,19,10,13,23.90
2015,07,19,10,14,23.90
2015,07,19,10,15,24.00
2015,07,19,10,16,24.00
2015,07,19,10,17,24.00
2015,07,19,10,18,24.10
2015,07,19,10,19,24.10
2015,07,19,10,20,24.10
2015,07,19,10,21,24.10
2015,07,19,10,22,24.00
2015,07,19,10,23,24.00
2015,07,19,10,24,23.90
2015,07,19,10,25,23.90
2015,07,19,10,26,23.90
2015,07,19,10,27,23.80
2015,07,19,10,28,23.80
2015,07,19,10,29,23.80
2015,07,19,10,30,23.80
2015,07,19,10,31,23.80
2015,07,19,10,32,23.90
2015,07,19,10,33,23.90
2015,07,19,10,34,24.00
2015,07,19,10,35,24.00
2015,07,19,10,36,24.10
2015,07,19,10,37,24.10
2015,07,19,10,38,24.10
2015,07,19,10,39,24.20
2015,07,19,10,40,24.20
2015,07,19,10,41,24.10
2015,07,19,10,42,24.00
2015,07,19,10,43,23.90
2015,07,19,10,44,23.90
2015,07,19,10,45,24.00
2015,07,19,10,46,24.00
2015,07,19,10,47,24.10
2015,07,19,10,48,24.10
2015,07,19,10,49,24.20
2015,07,19,10,50,24.20
2015,07,19,10,51,24.20
2015,07,19,10,52,24.20
2015,07,19,10,53,24.20
2015,07,19,10,54,24.20
2015,07,19,10,55,24.10
2015,07,19,10,56,24.10
2015,07,19,10,57,24.10
2015,07,19,10,58,24.10
2015,07,19,10,59,24.20
2015,07,19,11,00,24.20
2015,07,19,11,01,24.30
2015,07,19,11,02,24.40
2015,07,19,11,03,24.50
2015,07,19,11,04,24.50
2015,07,19,11,05,24.60
2015,07,19,11,06,24.60
2015,07,19,11,07,24.70
2015,07,19,11,08,24.70
2015,07,19,11,09,24.70
2015,07,19,11,10,24.80
2015,07,19,11,11,24.90
2015,07,19,11,12,24.90
2015,07,19,11,13,25.00
2015,07,19,11,14,25.00
2015,07,19,11,15,25.10
2015,07,19,11,16,25.10
2015,07,19,11,17,25.20
2015,07,19,11,18,25.30
2015,07,19,11,19,25.40
2015,07,19,11,20,25.40
2015,07,19,11,21,25.40
2015,07,19,11,22,25.40
2015,07,19,11,23,25.40
2015,07,19,11,24,25.40
2015,07,19,11,25,25.40
2015,07,19,11,26,25.40
2015,07,19,11,27,25.50
2015,07,19,11,28,25.50
2015,07,19,11,29,25.50
2015,07,19,11,30,25.60
2015,07,19,11,31,25.60
2015,07,19,11,32,25.60
2015,07,19,11,33,25.60
2015,07,19,11,34,25.70
2015,07,19,11,35,25.70
2015,07,19,11,36,25.80
2015,07,19,11,37,25.80
2015,07,19,11,38,25.70
2015,07,19,11,39,25.70
2015,07,19,11,40,25.70
2015,07,19,11,41,25.70
2015,07,19,11,42,25.70
2015,07,19,11,43,25.70
2015,07,19,11,44,25.70
2015,07,19,11,45,25.60
2015,07,19,11,46,25.60
2015,07,19,11,47,25.60
2015,07,19,11,48,25.60
2015,07,19,11,49,25.70
2015,07,19,11,50,25.70
2015,07,19,11,51,25.70
2015,07,19,11,52,25.70
2015,07,19,11,53,25.70
2015,07,19,11,54,25.70
2015,07,19,11,55,25.80
2015,07,19,11,56,25.80
2015,07,19,11,57,25.80
2015,07,19,11,58,25.80
2015,07,19,11,59,25.80
2015,07,19,12,00,25.70
2015,07,19,12,01,25.70
2015,07,19,12,02,25.70
2015,07,19,12,03,25.70
2015,07,19,12,04,25.70
2015,07,19,12,05,25.60
2015,07,19,12,06,25.60
2015,07,19,12,07,25.60
2015,07,19,12,08,25.60
2015,07,19,12,09,25.60
2015,07,19,12,10,25.70
2015,07,19,12,11,25.70
2015,07,19,12,12,25.80
2015,07,19,12,13,25.90
2015,07,19,12,14,26.00
2015,07,19,12,15,26.10
2015,07,19,12,16,26.20
2015,07,19,12,17,26.30
2015,07,19,12,18,26.30
2015,07,19,12,19,26.40
2015,07,19,12,20,26.40
2015,07,19,12,21,26.40
2015,07,19,12,22,26.50
2015,07,19,12,23,26.50
2015,07,19,12,24,26.60
2015,07,19,12,25,26.60
2015,07,19,12,26,26.60
2015,07,19,12,27,26.50
2015,07,19,12,28,26.50
2015,07,19,12,29,26.50
2015,07,19,12,30,26.60
2015,07,19,12,31,26.60
2015,07,19,12,32,26.70
2015,07,19,12,33,26.70
2015,07,19,12,34,26.80
2015,07,19,12,35,26.80
2015,07,19,12,36,26.80
2015,07,19,12,37,26.80
2015,07,19,12,38,26.90
2015,07,19,12,39,26.90
2015,07,19,12,40,26.80
2015,07,19,12,41,26.80
2015,07,19,12,42,26.80
2015,07,19,12,43,26.80
2015,07,19,12,44,26.80
2015,07,19,12,45,26.80
2015,07,19,12,46,26.80
2015,07,19,12,47,26.80
2015,07,19,12,48,26.80
2015,07,19,12,49,26.80
2015,07,19,12,50,26.80
2015,07,19,12,51,26.80
2015,07,19,12,52,26.80
2015,07,19,12,53,26.80
2015,07,19,12,54,26.90
2015,07,19,12,55,26.90
2015,07,19,12,56,26.90
2015,07,19,12,57,27.00
2015,07,19,12,58,27.10
2015,07,19,12,59,27.10
2015,07,19,13,00,27.10
2015,07,19,13,01,27.20
2015,07,19,13,02,27.20
2015,07,19,13,03,27.30
2015,07,19,13,04,27.40
2015,07,19,13,05,27.30
2015,07,19,13,06,27.20
2015,07,19,13,07,27.10
2015,07,19,13,08,27.10
2015,07,19,13,09,27.00
2015,07,19,13,10,26.90
2015,07,19,13,11,26.90
2015,07,19,13,12,26.90
2015,07,19,13,13,26.90
2015,07,19,13,14,26.90
2015,07,19,13,15,26.90
2015,07,19,13,16,26.80
2015,07,19,13,17,26.80
2015,07,19,13,18,26.70
2015,07,19,13,19,26.70
2015,07,19,13,20,26.70
2015,07,19,13,21,26.70
2015,07,19,13,22,26.70
2015,07,19,13,23,26.80
2015,07,19,13,24,26.80
2015,07,19,13,25,26.80
2015,07,19,13,26,26.80
2015,07,19,13,27,26.80
2015,07,19,13,28,26.80
2015,07,19,13,29,26.80
2015,07,19,13,30,26.90
2015,07,19,13,31,27.00
2015,07,19,13,32,27.10
2015,07,19,13,33,27.10
2015,07,19,13,34,27.20
2015,07,19,13,35,27.10
2015,07,19,13,36,27.20
2015,07,19,13,37,27.20
2015,07,19,13,38,27.20
2015,07,19,13,39,27.20
2015,07,19,13,40,27.20
2015,07,19,13,41,27.30
2015,07,19,13,42,27.40
2015,07,19,13,43,27.50
2015,07,19,13,44,27.50
2015,07,19,13,45,27.50
2015,07,19,13,46,27.40
2015,07,19,13,47,27.30
2015,07,19,13,48,27.20
2015,07,19,13,49,27.20
2015,07,19,13,50,27.20
2015,07,19,13,51,27.10
2015,07,19,13,52,27.10
2015,07,19,13,53,27.10
2015,07,19,13,54,27.10
2015,07,19,13,55,27.20
2015,07,19,13,56,27.30
2015,07,19,13,57,27.30
2015,07,19,13,58,27.40
2015,07,19,13,59,27.30
2015,07,19,14,00,27.30
2015,07,19,14,01,27.30
2015,07,19,14,02,27.30
2015,07,19,14,03,27.20
2015,07,19,14,04,27.20
2015,07,19,14,05,27.20
2015,07,19,14,06,27.30
2015,07,19,14,07,27.40
2015,07,19,14,08,27.50
2015,07,19,14,09,27.70
2015,07,19,14,10,27.80
2015,07,19,14,11,27.90
2015,07,19,14,12,28.10
2015,07,19,14,13,28.10
2015,07,19,14,14,28.10
2015,07,19,14,15,28.10
2015,07,19,14,16,28.00
2015,07,19,14,17,28.00
2015,07,19,14,18,27.90
2015,07,19,14,19,27.90
2015,07,19,14,20,28.00
2015,07,19,14,21,28.00
2015,07,19,14,22,28.10
2015,07,19,14,23,28.10
2015,07,19,14,24,28.10
2015,07,19,14,25,28.00
2015,07,19,14,26,28.10
2015,07,19,14,27,28.10
2015,07,19,14,28,28.10
2015,07,19,14,29,28.10
2015,07,19,14,30,28.20
2015,07,19,14,31,28.20
2015,07,19,14,32,28.20
2015,07,19,14,33,28.20
2015,07,19,14,34,28.20
2015,07,19,14,35,28.20
2015,07,19,14,36,28.20
2015,07,19,14,37,28.20
2015,07,19,14,38,28.30
2015,07,19,14,39,28.30
2015,07,19,14,40,28.40
2015,07,19,14,41,28.40
2015,07,19,14,42,28.50
2015,07,19,14,43,28.50
2015,07,19,14,44,28.50
2015,07,19,14,45,28.60
2015,07,19,14,46,28.60
2015,07,19,14,47,28.60
2015,07,19,14,48,28.70
2015,07,19,14,49,28.70
2015,07,19,14,50,28.80
2015,07,19,14,51,28.80
2015,07,19,14,52,28.80
2015,07,19,14,53,28.80
2015,07,19,14,54,28.80
2015,07,19,14,55,28.90
2015,07,19,14,56,28.90
2015,07,19,14,57,28.90
2015,07,19,14,58,28.90
2015,07,19,14,59,29.00
2015,07,19,15,00,29.00
2015,07,19,15,01,29.00
2015,07,19,15,02,29.10
2015,07,19,15,03,29.10
2015,07,19,15,04,29.10
2015,07,19,15,05,29.20
2015,07,19,15,06,29.20
2015,07,19,15,07,29.20
2015,07,19,15,08,29.20
2015,07,19,15,09,29.20
2015,07,19,15,10,29.30
2015,07,19,15,11,29.30
2015,07,19,15,12,29.20
2015,07,19,15,13,29.10
2015,07,19,15,14,29.00
2015,07,19,15,15,28.90
2015,07,19,15,16,28.60
2015,07,19,15,17,28.40
2015,07,19,15,18,28.10
2015,07,19,15,19,27.90
2015,07,19,15,20,27.80
2015,07,19,15,21,27.80
2015,07,19,15,22,27.80
2015,07,19,15,23,27.70
2015,07,19,15,24,27.70
2015,07,19,15,25,27.70
2015,07,19,15,26,27.80
2015,07,19,15,27,27.80
2015,07,19,15,28,27.90
2015,07,19,15,29,28.00
2015,07,19,15,30,28.00
2015,07,19,15,31,28.10
2015,07,19,15,32,28.10
2015,07,19,15,33,28.10
2015,07,19,15,34,28.10
2015,07,19,15,35,28.10
2015,07,19,15,36,28.10
2015,07,19,15,37,28.10
2015,07,19,15,38,28.00
2015,07,19,15,39,27.90
2015,07,19,15,40,27.80
2015,07,19,15,41,27.70
2015,07,19,15,42,27.60
2015,07,19,15,43,27.50
2015,07,19,15,44,27.40
2015,07,19,15,45,27.30
2015,07,19,15,46,27.20
2015,07,19,15,47,27.20
2015,07,19,15,48,27.20
2015,07,19,15,49,27.20
2015,07,19,15,50,27.20
2015,07,19,15,51,27.10
2015,07,19,15,52,27.10
2015,07,19,15,53,27.10
2015,07,19,15,54,27.10
2015,07,19,15,55,27.20
2015,07,19,15,56,27.30
2015,07,19,15,57,27.40
2015,07,19,15,58,27.50
2015,07,19,15,59,27.60
2015,07,19,16,00,27.60
2015,07,19,16,01,27.70
2015,07,19,16,02,27.70
2015,07,19,16,03,27.60
2015,07,19,16,04,27.50
2015,07,19,16,05,27.50
2015,07,19,16,06,27.40
2015,07,19,16,07,27.30
2015,07,19,16,08,27.20
2015,07,19,16,09,27.20
2015,07,19,16,10,27.10
2015,07,19,16,11,27.10
2015,07,19,16,12,27.10
2015,07,19,16,13,27.20
2015,07,19,16,14,27.20
2015,07,19,16,15,27.20
2015,07,19,16,16,27.10
2015,07,19,16,17,27.00
2015,07,19,16,18,26.90
2015,07,19,16,19,26.80
2015,07,19,16,20,26.70
2015,07,19,16,21,26.70
2015,07,19,16,22,26.70
2015,07,19,16,23,26.80
2015,07,19,16,24,26.80
2015,07,19,16,25,26.80
2015,07,19,16,26,26.80
2015,07,19,16,27,26.90
2015,07,19,16,28,26.90
2015,07,19,16,29,27.00
2015,07,19,16,30,27.00
2015,07,19,16,31,27.00
2015,07,19,16,32,26.90
2015,07,19,16,33,26.90
2015,07,19,16,34,26.90
2015,07,19,16,35,26.90
2015,07,19,16,36,26.90
2015,07,19,16,37,26.90
2015,07,19,16,38,26.90
2015,07,19,16,39,26.90
2015,07,19,16,40,26.90
2015,07,19,16,41,27.00
2015,07,19,16,42,27.00
2015,07,19,16,43,27.00
2015,07,19,16,44,27.00
2015,07,19,16,45,27.00
2015,07,19,16,46,27.10
2015,07,19,16,47,27.10
2015,07,19,16,48,27.10
2015,07,19,16,49,27.10
2015,07,19,16,50,27.10
2015,07,19,16,51,27.10
2015,07,19,16,52,27.20
2015,07,19,16,53,27.20
2015,07,19,16,54,27.30
2015,07,19,16,55,27.40
2015,07,19,16,56,27.50
2015,07,19,16,57,27.60
2015,07,19,16,58,27.60
2015,07,19,16,59,27.70
2015,07,19,17,00,27.80
2015,07,19,17,01,27.90
2015,07,19,17,02,28.00
2015,07,19,17,03,28.10
2015,07,19,17,04,28.20
2015,07,19,17,05,28.30
2015,07,19,17,06,28.50
2015,07,19,17,07,28.60
2015,07,19,17,08,28.60
2015,07,19,17,09,28.60
2015,07,19,17,10,28.60
2015,07,19,17,11,28.60
2015,07,19,17,12,28.70
2015,07,19,17,13,28.70
2015,07,19,17,14,28.80
2015,07,19,17,15,28.70
2015,07,19,17,16,28.70
2015,07,19,17,17,28.60
2015,07,19,17,18,28.60
2015,07,19,17,19,28.50